This is the latest recevied weather packets stored in our database for station/object N6WDO. If no packets are shown the sender has not sent any weather packets the latest 10 day(s).
| Time | Temp. | Humidity | Pressure | Rain* | Wind** | Luminosity | Snow |
|---|---|---|---|---|---|---|---|
| 1778086546 | 17.22° C | 61% | 1021.4 hPa | 0 mm | - | 523 W/m² | - |
| 1778086242 | 17.78° C | 62% | 1021.4 hPa | 0 mm | - | 507 W/m² | - |
| 1778085939 | 16.67° C | 63% | 1021.4 hPa | 0 mm | - | 495 W/m² | - |
| 1778085636 | 16.67° C | 62% | 1021.4 hPa | 0 mm | - | 482 W/m² | - |
| 1778085332 | 17.22° C | 63% | 1021.7 hPa | 0 mm | - | 469 W/m² | - |
| 1778085028 | 16.67° C | 59% | 1021.5 hPa | 0 mm | - | 456 W/m² | - |
| 1778084725 | 16.11° C | 64% | 1021.7 hPa | 0 mm | - | 443 W/m² | - |
| 1778084422 | 16.11° C | 65% | 1021.7 hPa | 0 mm | - | 428 W/m² | - |
| 1778084119 | 16.67° C | 66% | 1021.8 hPa | 0 mm | - | 412 W/m² | - |
| 1778083816 | 16.67° C | 65% | 1021.5 hPa | 0 mm | - | 397 W/m² | - |
| 1778083514 | 16.11° C | 68% | 1021.8 hPa | 0 mm | - | 384 W/m² | - |
| 1778083211 | 16.11° C | 67% | 1021.5 hPa | 0 mm | - | 369 W/m² | - |
| 1778082909 | 15.56° C | 66% | 1021.7 hPa | 0 mm | - | 355 W/m² | - |
| 1778081800 | 15.56° C | 73% | 1021.7 hPa | 0 mm | - | 295 W/m² | - |
| 1778081498 | 15.56° C | 72% | 1021.8 hPa | 0 mm | - | 274 W/m² | - |
| 1778081194 | 15.56° C | 73% | 1021.5 hPa | 0 mm | - | 247 W/m² | - |
| 1778080892 | 15.56° C | 77% | 1021.8 hPa | 0 mm | - | 219 W/m² | - |
| 1778080591 | 15.56° C | 76% | 1021.7 hPa | 0 mm | - | 201 W/m² | - |
| 1778080287 | 15° C | 79% | 1021.5 hPa | 0 mm | - | 174 W/m² | - |
| 1778079984 | 14.44° C | 77% | 1021.8 hPa | 0 mm | - | 157 W/m² | - |
| 1778079681 | 13.89° C | 82% | 1021.5 hPa | 0 mm | - | 147 W/m² | - |
| 1778079378 | 13.89° C | 81% | 1021.7 hPa | 0 mm | - | 135 W/m² | - |
| 1778079075 | 13.33° C | 82% | 1021.7 hPa | 0 mm | - | 124 W/m² | - |
| 1778078772 | 12.78° C | 84% | 1021.5 hPa | 0 mm | - | 114 W/m² | - |
| 1778078469 | 12.22° C | 86% | 1021.7 hPa | 0 mm | - | 101 W/m² | - |
* Rain latest hour (hover to see other rain measurements)
** Current wind speed in m/s (hover to see current wind gust speed)